GW1754 Weather Reports


Display with metric or nautical units.
time (UTC)temp
F
wind
direction
speed
MPH
gust
MPH
rain 1hr
in
rain 24hr
in
rain mn
in
humidity
%
barometer
mb
20260508071021 50 7 2.0 4.0 0.00 0.00 0.00 90 1014.2
20260508070021 49 27 3.0 5.0 0.00 0.00 0.00 93 1014.2
20260508065021 49 25 4.0 6.0 0.00 0.00 0.00 95 1014.1
20260508064021 48 6 4.0 6.0 0.00 0.00 0.00 97 1014.1
20260508063021 47 22 4.0 8.0 0.00 0.00 0.00 98 1014.0
20260508062021 47 48 4.0 6.0 0.00 0.00 0.00 99 1014.0
20260508061021 46 16 1.0 3.0 0.00 0.00 0.00 99 1013.8
20260508060021 46 325 1.0 3.0 0.00 0.00 0.00 99 1013.7
20260508055020 46 318 3.0 6.0 0.00 0.00 0.00 99 1013.6
20260508054020 45 336 2.0 4.0 0.00 0.00 0.00 99 1013.6
20260508053020 45 44 2.0 3.0 0.00 0.00 0.00 98 1013.5
20260508052020 45 316 3.0 5.0 0.00 0.00 0.00 98 1013.4
20260508051020 45 318 4.0 6.0 0.00 0.00 0.00 98 1013.3
20260508050020 45 314 5.0 7.0 0.00 0.00 0.00 98 1013.3
20260508045020 45 312 3.0 5.0 0.00 0.00 0.00 98 1013.3
20260508044020 45 316 3.0 5.0 0.00 0.00 0.00 97 1013.3
20260508043020 46 319 3.0 3.0 0.00 0.00 0.00 97 1013.4
20260508042020 46 310 2.0 3.0 0.00 0.00 0.00 97 1013.4
20260508041020 46 328 1.0 3.0 0.00 0.00 0.00 97 1013.5
20260508040020 45 318 2.0 3.0 0.00 0.00 0.00 97 1013.4
20260508035020 45 322 1.0 2.0 0.00 0.00 0.00 96 1013.4
20260508034020 45 302 3.0 4.0 0.00 0.00 0.00 96 1013.3
20260508033020 45 305 3.0 4.0 0.00 0.00 0.00 96 1013.3
20260508032020 46 310 2.0 3.0 0.00 0.00 0.00 96 1013.3
20260508031020 46 294 2.0 2.0 0.00 0.00 0.00 96 1013.4
20260508030020 46 285 1.0 1.0 0.00 0.00 0.00 95 1013.4
20260508025020 46 280 1.0 1.0 0.00 0.00 0.00 95 1013.4
20260508024020 46 289 2.0 3.0 0.00 0.00 0.00 94 1013.4
20260508023020 46 292 2.0 3.0 0.00 0.00 0.00 94 1013.3
20260508022020 46 299 2.0 3.0 0.00 0.00 0.00 94 1013.2
20260508021019 47 314 2.0 2.0 0.00 0.00 0.00 94 1013.2
20260508020019 47 285 1.0 1.0 0.00 0.00 0.00 93 1013.2
20260508015019 47 190 1.0 3.0 0.00 0.00 0.00 93 1013.2
20260508014019 47 129 1.0 2.0 0.00 0.00 0.00 92 1013.2
20260508013019 47 259 3.0 3.0 0.00 0.00 0.00 92 1013.3
20260508012019 47 286 3.0 4.0 0.00 0.00 0.00 91 1013.2
20260508011019 47 298 3.0 4.0 0.00 0.00 0.00 91 1013.2
20260508010019 47 282 3.0 4.0 0.00 0.00 0.00 90 1013.2
20260508005019 48 284 3.0 4.0 0.00 0.00 0.00 89 1013.3
20260508004019 48 281 2.0 3.0 0.00 0.00 0.00 89 1013.4
20260508003019 48 282 2.0 3.0 0.00 0.00 0.00 88 1013.5
20260508002019 49 258 2.0 4.0 0.00 0.00 0.00 87 1013.6
20260508001011 49 242 3.0 5.0 0.00 0.00 0.00 87 1013.7
20260508000011 49 258 3.0 4.0 0.00 0.00 0.00 86 1013.7
20260507235011 49 255 3.0 5.0 0.00 0.00 0.00 85 1013.7
20260507234011 49 258 4.0 6.0 0.00 0.00 0.00 84 1013.7
20260507233011 49 257 4.0 6.0 0.00 0.00 0.00 84 1013.7
20260507232011 49 242 3.0 4.0 0.00 0.00 0.00 81 1013.7
20260507231011 50 242 4.0 6.0 0.00 0.00 0.00 80 1013.7
20260507230011 50 235 4.0 8.0 0.00 0.00 0.00 79 1013.7
20260507225011 50 223 3.0 6.0 0.00 0.00 0.00 80 1013.6
20260507224011 50 225 4.0 6.0 0.00 0.00 0.00 79 1013.5
20260507223011 51 215 4.0 6.0 0.00 0.00 0.00 79 1013.6
20260507222011 51 214 4.0 7.0 0.00 0.00 0.00 80 1013.6
20260507221010 51 211 4.0 6.0 0.00 0.00 0.00 79 1013.5
20260507220010 51 211 4.0 6.0 0.00 0.00 0.00 79 1013.4
20260507215010 51 214 4.0 7.0 0.00 0.00 0.00 78 1013.5
20260507214010 51 209 4.0 6.0 0.00 0.00 0.00 78 1013.4
20260507213010 51 204 3.0 6.0 0.00 0.00 0.00 77 1013.4
20260507212010 51 205 3.0 6.0 0.00 0.00 0.00 76 1013.4
20260507211010 51 201 3.0 7.0 0.00 0.00 0.00 75 1013.3
20260507210010 51 199 4.0 8.0 0.00 0.00 0.00 75 1013.2
20260507205010 51 211 4.0 9.0 0.00 0.00 0.00 73 1013.1
20260507204010 51 210 5.0 8.0 0.00 0.00 0.00 72 1013.1
20260507203010 51 207 4.0 8.0 0.00 0.00 0.00 72 1013.0
20260507202010 52 211 4.0 7.0 0.00 0.00 0.00 71 1012.8
20260507201010 52 213 5.0 11.0 0.00 0.00 0.00 70 1012.8
20260507200010 52 208 4.0 10.0 0.00 0.00 0.00 69 1012.8
20260507195010 52 212 6.0 11.0 0.00 0.00 0.00 69 1012.7
20260507194010 52 208 5.0 10.0 0.00 0.00 0.00 69 1012.7
20260507193010 53 206 5.0 8.0 0.00 0.00 0.00 68 1012.7
20260507192010 53 214 4.0 9.0 0.00 0.00 0.00 68 1012.6
20260507191010 53 206 5.0 11.0 0.00 0.00 0.00 67 1012.5
20260507190010 53 209 6.0 12.0 0.00 0.00 0.00 66 1012.5
20260507185010 53 206 6.0 13.0 0.00 0.00 0.00 66 1012.4
20260507184010 54 202 5.0 13.0 0.00 0.00 0.00 66 1012.4
20260507183010 54 203 5.0 9.0 0.00 0.00 0.00 65 1012.4
20260507182010 54 214 6.0 11.0 0.00 0.00 0.00 64 1012.4
20260507181009 54 210 7.0 13.0 0.00 0.00 0.00 64 1012.4
20260507180009 54 205 6.0 12.0 0.00 0.00 0.00 62 1012.5
20260507175009 54 208 6.0 14.0 0.00 0.00 0.00 62 1012.4
20260507174009 55 203 6.0 13.0 0.00 0.00 0.00 62 1012.4
20260507173009 55 206 6.0 13.0 0.00 0.00 0.00 63 1012.5
20260507172009 55 202 6.0 10.0 0.00 0.00 0.00 65 1012.6
20260507171009 55 211 7.0 12.0 0.00 0.00 0.00 64 1012.6
20260507170009 55 213 7.0 14.0 0.00 0.00 0.00 65 1012.6
20260507165009 56 208 6.0 14.0 0.00 0.00 0.00 65 1012.5
20260507164009 56 197 5.0 13.0 0.00 0.00 0.00 64 1012.5
20260507163009 56 206 8.0 15.0 0.00 0.00 0.00 62 1012.5
20260507162009 57 206 6.0 15.0 0.00 0.00 0.00 65 1012.5
20260507161009 57 209 8.0 14.0 0.00 0.00 0.00 62 1012.5
20260507160009 57 209 7.0 14.0 0.00 0.00 0.00 63 1012.4
20260507155013 58 198 7.0 13.0 0.00 0.00 0.00 62 1012.6
20260507154013 58 193 7.0 12.0 0.00 0.00 0.00 62 1012.4
20260507153013 59 202 6.0 12.0 0.00 0.00 0.00 61 1012.4
20260507152013 59 208 6.0 13.0 0.00 0.00 0.00 62 1012.4
20260507151013 59 203 7.0 16.0 0.00 0.00 0.00 61 1012.4
20260507150013 58 195 7.0 16.0 0.00 0.00 0.00 61 1012.5
20260507145013 58 195 7.0 13.0 0.00 0.00 0.00 60 1012.5
20260507144012 59 188 6.0 13.0 0.00 0.00 0.00 55 1012.6
20260507143013 59 191 7.0 14.0 0.00 0.00 0.00 57 1012.6
20260507142012 60 183 6.0 12.0 0.00 0.00 0.00 55 1012.6
20260507141012 59 198 6.0 12.0 0.00 0.00 0.00 53 1012.6
20260507140012 59 187 7.0 14.0 0.00 0.00 0.00 52 1012.6
20260507135012 59 185 6.0 14.0 0.00 0.00 0.00 53 1012.6
20260507134012 59 181 6.0 13.0 0.00 0.00 0.00 53 1012.6
20260507133012 59 186 6.0 12.0 0.00 0.00 0.00 56 1012.5
20260507132012 58 179 6.0 12.0 0.00 0.00 0.00 56 1012.5
20260507131012 58 186 6.0 13.0 0.00 0.00 0.00 57 1012.6
20260507130012 59 193 6.0 12.0 0.00 0.00 0.00 57 1012.7
20260507125012 58 168 7.0 14.0 0.00 0.00 0.00 58 1012.6
20260507124012 59 173 6.0 13.0 0.00 0.00 0.00 57 1012.7
20260507123012 59 173 6.0 13.0 0.00 0.00 0.00 58 1012.7
20260507122012 58 175 6.0 12.0 0.00 0.00 0.00 57 1012.8
20260507121012 58 166 6.0 14.0 0.00 0.00 0.00 59 1012.8
20260507120012 58 169 6.0 11.0 0.00 0.00 0.00 59 1012.7
20260507115012 58 179 6.0 13.0 0.00 0.00 0.00 59 1012.7
20260507114012 58 188 6.0 11.0 0.00 0.00 0.00 59 1012.7
20260507113012 58 175 6.0 15.0 0.00 0.00 0.00 61 1012.7
20260507112012 57 174 6.0 13.0 0.00 0.00 0.00 61 1012.7
20260507111012 57 189 6.0 12.0 0.00 0.00 0.00 63 1012.7
20260507110012 56 185 5.0 10.0 0.00 0.00 0.00 64 1012.8
20260507105011 56 184 5.0 10.0 0.00 0.00 0.00 67 1012.7
20260507104012 55 200 5.0 10.0 0.00 0.00 0.00 69 1012.8
20260507103011 56 174 5.0 12.0 0.00 0.00 0.00 75 1012.8
20260507102011 55 190 5.0 8.0 0.00 0.00 0.00 80 1012.9
20260507101011 54 210 5.0 10.0 0.00 0.00 0.00 80 1012.8
20260507100011 54 201 5.0 9.0 0.00 0.00 0.00 81 1012.8
20260507095011 54 211 6.0 11.0 0.00 0.00 0.00 84 1012.8
20260507094011 52 206 5.0 10.0 0.00 0.00 0.00 88 1012.8
20260507093011 51 217 5.0 10.0 0.00 0.00 0.00 92 1012.7
20260507092011 51 169 4.0 9.0 0.00 0.00 0.00 92 1012.6
20260507091011 52 214 4.0 8.0 0.00 0.00 0.00 87 1012.5
20260507090011 54 164 5.0 10.0 0.00 0.00 0.00 88 1012.7
20260507085011 51 168 5.0 10.0 0.00 0.00 0.00 90 1012.6
20260507084011 51 159 7.0 11.0 0.00 0.00 0.00 93 1012.6
20260507083011 51 158 7.0 11.0 0.00 0.00 0.00 95 1012.6
20260507082011 50 168 5.0 11.0 0.00 0.00 0.00 95 1012.6
20260507081011 50 156 8.0 13.0 0.00 0.00 0.00 97 1012.6
20260507080011 50 167 6.0 16.0 0.00 0.00 0.00 95 1012.6
20260507075011 51 170 7.0 15.0 0.00 0.00 0.00 85 1012.5
20260507074011 52 151 12.0 16.0 0.00 0.00 0.00 71 1012.4
20260507073011 52 152 11.0 15.0 0.00 0.00 0.00 73 1012.4
20260507072011 52 154 10.0 14.0 0.00 0.00 0.00 70 1012.4